Location: Chuathbaluk
(61.5726°N, 159.2454°W)
Time: 18:26:02
(UTC+00:00)

TIGRISAT - Pass Details

Date: 20 January 2021
Orbit: 605 x 688 km, 97.7° (Epoch: 06 March)

Event Time Altitude Azimuth Distance (km) Brightness Sun altitude
Rises 15:55:47 0° 130° (SE) 2,872 ? -23.7°
Reaches altitude 10° 15:58:05 10° 121° (ESE) 1,979 ? -23.4°
Maximum altitude 16:01:57 34° 57° (ENE) 1,043 ? -23.0°
Drops below altitude 10° 16:05:54 10° 354° (N) 2,026 ? -22.5°
Enters shadow 16:06:25 - 351° (N) 2,225 ? -22.4°
